Tracking 35331 objects as of 16-Sep-2026
HD Live streaming from Space Station
objects crossing your sky now

SL-4 R/B


SL-4 R/B is no longer on orbit


NORAD ID: 15656
Int'l Code: 1985-031B
Launch date: April 19, 1985
Source: Commonwealth of Independent States (former USSR) (CIS)
Launch site: PLESETSK MISSILE AND SPACE COMPLEX (PKMTR)
Decay date: 1985-04-23

Note: This is a ROCKET BODY
Your satellite tracking list
Your tracking list is empty




NASA's NSSDC Master Catalog

Two Line Element Set (TLE):
1 15656U 85031  B 85112.84128081  .10519140 +26219-4 +23821-3 0  9993
2 15656 067.1233 032.9468 0038551 089.9733 270.7933 16.41579997000537
Source of the keplerian elements: AFSPC